DMSP 5D-2 F11 DEB, 28303

Orbit data source: Space-Track

DMSP 5D-2 F11 DEB, 28303 is space debris in SSO originally from a launch on Thu, 28 Nov 1991 UTC launched from the Air Force Western Test Range (AFWTR). Debris objects in space refer to the collection of defunct objects orbiting the Earth. Examples of debris include non-operational satellites, rocket bodies, and fragments generated from explosions, collisions, or faulty payload assembly.

Loading next visibility...
Identifier
28303, 1991-082Q
Orbit
SSO
Country
Flag of USUS
Related business
Manufacturer
Unknown
Mission
Spacecraft
Bus & Motor
Unknown
Mass
Unknown
Launch date (UTC)
1991-11-28 (34 years ago)
Launch vehicle
Unknown
Launch site
Air Force Western Test Range (AFWTR)
Object type
Payload
Rocket body
Debris
Shape & HBR
Unknown shape, 0.2 m
Radar Cross Section
Small (<0.1 m²)

Expand to show TLE details & history
Last TLE update: 1 day ago

TLE from 1 day ago
0 DMSP 5D-2 F11 DEB
1 28303U 91082Q   26134.00547227  .00000074  00000-0  49176-4 0  9991
2 28303  98.7210 154.4024 0029327 163.9692 258.9563 14.26239411147513
Epoch: 2026-05-14T00:07Z
TLE epoch observation values (Epoch: 2026-05-14T00:07:52.804Z)
Latitude
61.43941°
Longitude
-95.60412°
Altitude
818.898 km
Speed
7.447 km/s
True Right ascension
09h 12m 29s
True Declination
61° 17' 46"
Sunlit
Object was in daylight at epoch
Visualization orbit readout
Latitude
Unknown
Longitude
Unknown
Altitude
Unknown
Speed
Unknown
Apparent Right ascension
Unknown
Apparent Declination
Unknown
Sunlit
N/A
Visualization observer readout
Local Sidereal Time
19:13:03
Azimuth
Unknown
Elevation
Unknown
Doppler factor
Unknown
Orbital elements
Apogee altitude
822.535 km
Perigee altitude
780.424 km
Semi-major axis
7,179.616 km
Eccentricity
0.00293
Inclination
98.721°
RAAN
154.4024°
Arg. of periapsis
163.9692°
True anomaly
258.62669°
Mean anomaly
258.9563°
Eccentric anomaly
258.79147°
Mean motion
3.56772 °/min
Orbital period
100.9 mins
BSTAR
0.000049176
Loading maneuver chart data...
Computing Atmospheric mass density...

Documentation

Showing up to 5 results
|